ZF1RC George Town KY current weather conditions

sailwx.info

Wind from 230

Air temperature 30.6° C
Dewpoint 25.8° C

Last reported at 2015-Sep-02 13:50 UTC.
Time now 2015-Sep-02 14:50 UTC

Location: N 19°16' W 081°23'.
View on Google Maps.

See reports from other nearby stations

  
Tides and Currents Weather Stations Pressure Air Temp Water Temp Dewpoint Dewpoint Depression Visibility Wind Speed Wind Dir Waves Ship Positions
date/time (UTC)wind fromknots sea level pressurealtimeterstation pressurevisibilityair tempwater tempwave heightnotes
2015-Sep-02 13:50 230 30.6
2015-Sep-02 13:40 115 30.0
2015-Sep-02 13:30 138 29.4
2015-Sep-02 13:20 286 28.3
2015-Sep-02 13:00 134 27.2
2015-Sep-02 12:40 155 26.1
2015-Sep-02 12:30 098 25.6
2015-Sep-02 12:20 086 25.6
2015-Sep-02 11:30 106 25.0
2015-Sep-02 11:10 078 24.4
2015-Sep-02 11:00 182 25.0
2015-Sep-02 10:50 023 25.0
2015-Sep-02 10:40 023 0 gusting 1 25.0
2015-Sep-02 10:30 006 1 gusting 1 25.0
2015-Sep-02 10:10 034 25.0
2015-Sep-02 10:00 034 25.0
2015-Sep-02 09:50 013 0 gusting 0 25.0
2015-Sep-02 09:40 012 0 gusting 0 25.0
2015-Sep-02 09:20 026 25.6
2015-Sep-02 09:10 024 0 gusting 0 25.0
2015-Sep-02 09:00 023 25.0
2015-Sep-02 08:50 028 25.6
2015-Sep-02 08:40 057 25.6
2015-Sep-02 08:10 066 1 gusting 1 25.6
2015-Sep-02 07:50 056 0 gusting 0 25.6
2015-Sep-02 07:20 039 0 gusting 0 25.0
2015-Sep-02 07:00 050 25.0
2015-Sep-02 06:40 082 0 gusting 0 25.0
2015-Sep-02 06:20 089 25.6
2015-Sep-02 06:10 080 0 gusting 0 25.6
2015-Sep-02 06:00 064 25.6
2015-Sep-02 05:40 056 25.6
2015-Sep-02 05:30 077 0 gusting 0 25.6
2015-Sep-02 05:20 082 25.6
2015-Sep-02 05:10 096 25.6
2015-Sep-02 04:50 083 26.1
2015-Sep-02 04:30 089 0 gusting 1 26.1
2015-Sep-02 03:50 046 0 gusting 0 26.7
2015-Sep-02 03:40 059 1 gusting 1 26.7
2015-Sep-02 03:30 068 0 gusting 1 26.7
2015-Sep-02 03:10 072 0 gusting 1 26.7
2015-Sep-02 03:00 063 1 gusting 1 26.7
2015-Sep-02 02:50 108 0 gusting 1 26.7
2015-Sep-02 02:40 064 1 gusting 1 26.7
2015-Sep-02 02:30 080 1 gusting 1 27.2
2015-Sep-02 02:20 086 1 gusting 2 27.2
2015-Sep-02 02:10 102 0 gusting 1 27.2
2015-Sep-02 01:50 067 1 gusting 1 27.2
2015-Sep-02 01:10 075 1 gusting 1 27.8
2015-Sep-02 00:20 069 2 gusting 4 27.8
2015-Sep-02 00:10 104 1 gusting 2 28.3
2015-Sep-01 23:50 085 1 gusting 2 28.3
2015-Sep-01 23:30 216 0 gusting 5 28.9
2015-Sep-01 23:20 111 28.9
2015-Sep-01 23:10 151 2 gusting 4 29.4
2015-Sep-01 23:00 127 2 gusting 5 30.0
2015-Sep-01 22:30 039 0 gusting 1 31.1
2015-Sep-01 22:20 128 31.7
2015-Sep-01 22:10 024 31.7
2015-Sep-01 22:00 223 31.7
2015-Sep-01 21:30 129 0 gusting 5 31.7
2015-Sep-01 21:20 036 31.7
2015-Sep-01 21:10 196 0 gusting 1 31.7
2015-Sep-01 21:00 325 0 gusting 2 31.7
2015-Sep-01 20:50 213 0 gusting 6 31.7
2015-Sep-01 20:40 124 2 gusting 5 31.7
2015-Sep-01 20:30 143 2 gusting 4 31.7
2015-Sep-01 20:20 156 0 gusting 5 31.7
2015-Sep-01 20:10 140 1 gusting 4 31.7
2015-Sep-01 20:00 084 1 gusting 4 31.7
2015-Sep-01 19:50 324 2 gusting 6 31.7
2015-Sep-01 19:30 093 2 gusting 6 31.7
2015-Sep-01 19:20 043 1 gusting 6 31.7
2015-Sep-01 18:40 083 1 gusting 11 30.6
2015-Sep-01 18:30 080 5 gusting 8 30.6
2015-Sep-01 18:20 070 2 gusting 7 30.0
2015-Sep-01 18:10 074 6 gusting 8 30.0
2015-Sep-01 18:00 114 3 gusting 11 30.0
2015-Sep-01 17:50 187 0 gusting 6 30.0
2015-Sep-01 17:40 051 6 gusting 7 29.4
2015-Sep-01 17:30 058 1 gusting 5 29.4
2015-Sep-01 17:20 152 1 gusting 5 28.9
2015-Sep-01 17:10 124 2 gusting 4 28.3
2015-Sep-01 17:00 094 6 gusting 7 28.3
2015-Sep-01 16:50 092 5 gusting 7 27.8
2015-Sep-01 16:40 098 1 gusting 6 27.2
2015-Sep-01 16:30 080 3 gusting 6 26.7
2015-Sep-01 16:20 087 4 gusting 7 26.1
2015-Sep-01 16:10 090 4 gusting 6 26.1
2015-Sep-01 16:00 089 2 gusting 7 26.1
2015-Sep-01 15:50 101 4 gusting 7 25.6
2015-Sep-01 15:40 073 4 gusting 7 25.0
2015-Sep-01 15:30 114 4 gusting 6 25.0
2015-Sep-01 15:20 088 4 gusting 6 24.4
2015-Sep-01 15:10 134 3 gusting 4 23.9
2015-Sep-01 15:00 094 23.3
2015-Sep-01 14:50 071 22.8
2015-Sep-01 14:40 087 2 gusting 5 22.2
2015-Sep-01 14:30 034 5 gusting 6 22.2
2015-Sep-01 14:20 069 7 gusting 8 22.8
2015-Sep-01 14:10 183 4 gusting 8 23.3
2015-Sep-01 13:50 185 6 gusting 14 23.9
2015-Sep-01 13:40 156 1 gusting 5 24.4
2015-Sep-01 13:30 036 25.0
2015-Sep-01 13:20 139 1 gusting 2 25.0
2015-Sep-01 13:10 191 1 gusting 1 24.4
2015-Sep-01 13:00 328 1 gusting 1 24.4
2015-Sep-01 12:50 086 1 gusting 2 23.9
2015-Sep-01 12:40 017 0 gusting 0 23.9
2015-Sep-01 12:30 338 0 gusting 2 23.9
2015-Sep-01 12:20 016 0 gusting 2 23.9
2015-Sep-01 12:10 050 3 gusting 6 24.4
2015-Sep-01 12:00 096 3 gusting 6 24.4
2015-Sep-01 11:50 037 0 gusting 0 25.0
2015-Sep-01 11:40 022 25.0
2015-Sep-01 11:30 309 0 gusting 1 25.0
2015-Sep-01 11:20 323 0 gusting 5 25.0
2015-Sep-01 11:10 324 2 gusting 2 25.0
2015-Sep-01 11:00 346 0 gusting 2 25.0
2015-Sep-01 10:50 322 2 gusting 4 25.0
2015-Sep-01 10:40 307 0 gusting 1 24.4
2015-Sep-01 10:30 241 1 gusting 5 24.4
2015-Sep-01 10:20 232 2 gusting 6 24.4
2015-Sep-01 10:10 308 4 gusting 6 24.4
2015-Sep-01 10:00 239 6 gusting 7 25.0
2015-Sep-01 09:50 195 4 gusting 6 25.6
2015-Sep-01 09:40 077 25.6
2015-Sep-01 09:30 034 25.0
2015-Sep-01 09:20 132 25.6
2015-Sep-01 09:10 206 0 gusting 4 25.6
2015-Sep-01 09:00 045 25.6
2015-Sep-01 08:50 126 0 gusting 1 25.0
2015-Sep-01 08:40 276 24.4
2015-Sep-01 08:30 278 0 gusting 4 23.9
2015-Sep-01 08:20 105 1 gusting 6 23.9
2015-Sep-01 08:10 164 3 gusting 6 23.9
2015-Sep-01 08:00 099 2 gusting 6 23.9
2015-Sep-01 07:50 065 5 gusting 6 23.9
2015-Sep-01 07:40 093 5 gusting 6 23.9
2015-Sep-01 07:30 029 2 gusting 6 23.9
2015-Sep-01 07:20 044 5 gusting 8 24.4
2015-Sep-01 07:10 086 3 gusting 4 25.0
2015-Sep-01 07:00 078 0 gusting 0 25.0
2015-Sep-01 06:50 091 0 gusting 2 25.0
2015-Sep-01 06:40 055 2 gusting 2 25.0
2015-Sep-01 06:30 038 1 gusting 1 25.0
2015-Sep-01 06:20 027 1 gusting 2 25.0
2015-Sep-01 06:10 048 3 gusting 4 24.4
2015-Sep-01 06:00 015 4 gusting 5 24.4
2015-Sep-01 05:50 009 3 gusting 4 24.4
2015-Sep-01 05:40 036 2 gusting 5 23.9
2015-Sep-01 05:30 022 3 gusting 4 23.9
2015-Sep-01 05:20 032 2 gusting 2 23.3
2015-Sep-01 05:10 004 1 gusting 1 23.3
2015-Sep-01 05:00 230 23.3
2015-Sep-01 04:50 013 4 gusting 7 23.3
2015-Sep-01 04:40 289 0 gusting 6 25.6
2015-Sep-01 04:30 108 26.1
2015-Sep-01 04:20 304 0 gusting 1 26.1
2015-Sep-01 04:10 338 1 gusting 1 26.1
2015-Sep-01 04:00 296 1 gusting 1 26.1
2015-Sep-01 03:50 325 1 gusting 1 26.1
2015-Sep-01 03:40 248 2 gusting 2 26.1
2015-Sep-01 03:30 019 26.1
2015-Sep-01 03:20 027 1 gusting 2 26.1
2015-Sep-01 03:10 039 26.1
2015-Sep-01 03:00 040 25.6
2015-Sep-01 02:50 181 25.6
2015-Sep-01 02:40 174 0 gusting 0 25.6
2015-Sep-01 02:30 123 25.6
2015-Sep-01 02:20 166 25.6
2015-Sep-01 02:10 166 2 gusting 5 25.6
2015-Sep-01 02:00 179 2 gusting 2 25.6
2015-Sep-01 01:50 182 1 gusting 2 25.6
2015-Sep-01 01:40 168 0 gusting 2 25.0
2015-Sep-01 01:30 165 2 gusting 6 25.0
2015-Sep-01 01:20 076 1 gusting 6 23.9
2015-Sep-01 01:10 107 1 gusting 6 23.9
2015-Sep-01 01:00 066 6 gusting 12 24.4
2015-Sep-01 00:50 180 1 gusting 4 27.8
2015-Sep-01 00:40 122 2 gusting 6 28.3
2015-Sep-01 00:30 171 4 gusting 6 28.3
2015-Sep-01 00:20 034 3 gusting 8 28.3
2015-Sep-01 00:10 050 1 gusting 5 28.3
2015-Sep-01 00:00 080 2 gusting 5 28.9
2015-Aug-31 23:50 048 4 gusting 6 28.9
2015-Aug-31 23:40 066 4 gusting 6 28.9
2015-Aug-31 23:30 094 3 gusting 6 28.9
2015-Aug-31 23:20 088 5 gusting 6 28.9
2015-Aug-31 23:10 082 3 gusting 6 29.4
2015-Aug-31 23:00 122 2 gusting 4 29.4
2015-Aug-31 22:54 088 2 gusting 2 29.4
2015-Aug-31 22:50 132 1 gusting 6 30.0
2015-Aug-31 22:40 157 1 gusting 6 30.0
2015-Aug-31 22:30 134 1 gusting 4 30.0
2015-Aug-31 22:20 135 2 gusting 5 30.6
2015-Aug-31 22:10 088 2 gusting 5 30.6
2015-Aug-31 22:00 135 1 gusting 4 31.1
2015-Aug-31 21:50 134 31.1
2015-Aug-31 21:40 088 2 gusting 6 31.1
2015-Aug-31 21:30 101 5 gusting 8 31.7
2015-Aug-31 21:20 106 31.7
2015-Aug-31 21:10 048 3 gusting 6 31.7
2015-Aug-31 21:00 160 2 gusting 4 31.7
2015-Aug-31 20:50 246 32.8
2015-Aug-31 20:40 310 0 gusting 2 32.8
2015-Aug-31 20:30 049 32.8
2015-Aug-31 20:20 129 4 gusting 5 32.2
2015-Aug-31 20:10 161 1 gusting 11 32.2
2015-Aug-31 20:00 192 0 gusting 2 32.8
2015-Aug-31 19:50 169 2 gusting 2 32.2
2015-Aug-31 19:40 105 2 gusting 6 32.2
2015-Aug-31 19:30 132 32.8
2015-Aug-31 19:20 092 32.8
2015-Aug-31 19:10 074 1 gusting 1 32.8
2015-Aug-31 19:00 194 0 gusting 1 33.3
2015-Aug-31 18:50 181 0 gusting 1 33.3
2015-Aug-31 18:40 212 0 gusting 4 32.8
2015-Aug-31 18:30 151 33.3
2015-Aug-31 18:20 310 33.3
2015-Aug-31 18:10 102 32.8
2015-Aug-31 18:00 172 0 gusting 0 32.8
2015-Aug-31 17:50 003 0 gusting 1 32.2
2015-Aug-31 17:40 072 0 gusting 2 32.2
2015-Aug-31 17:30 186 32.2
2015-Aug-31 17:20 160 0 gusting 1 31.7
2015-Aug-31 17:10 093 0 gusting 1 32.8
2015-Aug-31 17:00 014 0 gusting 2 32.8
2015-Aug-31 16:50 108 32.2
2015-Aug-31 16:40 118 31.7
2015-Aug-31 16:30 274 31.7
2015-Aug-31 16:20 305 31.7
2015-Aug-31 16:10 079 4 gusting 6 31.7
2015-Aug-31 16:00 097 31.1
2015-Aug-31 15:50 097 1 gusting 6 31.1
2015-Aug-31 15:40 100 2 gusting 4 30.6
2015-Aug-31 15:30 068 2 gusting 4 30.6
2015-Aug-31 15:20 092 4 gusting 8 30.0
2015-Aug-31 15:10 109 1 gusting 5 29.4
2015-Aug-31 15:00 118 0 gusting 5 29.4
2015-Aug-31 14:50 042 0 gusting 6 28.9
2015-Aug-31 14:40 106 1 gusting 4 28.9
2015-Aug-31 14:30 096 4 gusting 5 27.8
2015-Aug-31 14:20 060 2 gusting 4 27.2
2015-Aug-31 14:10 066 0 gusting 1 26.7
2015-Aug-31 14:00 052 1 gusting 1 26.7